Theta_e
332 332 332 333 334 334 334 334 334 335 336 333 335 333 331 330 328 326 325 325 325 325 326 326 326 328 328 328 327 327 328 326 326 327 329 330 332 337 340 339 339 339 338 338 337 337 336 335 334 332 331 329 329 329 328 328 328 328 329 331 332 333 334 336 337 337 336 335 334 334 332 330 329 328 327 327 326 325 324 324 324 324 324 323 323
332 332 332 333 334 334 333 334 334 334 334 332 331 331 332 330 329 327 326 325 325 325 325 325 325 327 328 328 328 329 328 326 326 328 329 330 331 334 340 339 337 338 338 338 338 337 337 336 334 333 332 331 330 329 329 328 328 329 330 331 332 332 334 335 337 337 336 334 334 333 331 330 329 328 327 326 326 325 324 323 324 324 323 322 321
332 332 333 334 334 333 333 334 334 333 333 333 336 335 331 328 328 328 327 326 326 326 327 324 325 327 328 328 328 328 327 327 327 328 329 329 331 332 337 340 338 336 337 337 338 337 337 336 336 334 333 332 331 331 330 327 327 329 329 331 332 333 334 335 337 337 335 333 332 332 330 329 328 327 326 325 325 324 323 323 323 323 322 322 321
333 333 334 334 334 334 333 333 334 334 334 334 334 335 334 333 332 331 329 328 327 326 326 324 323 326 328 328 327 326 326 327 326 327 328 329 330 331 333 336 338 336 337 336 337 338 337 337 336 335 334 334 333 332 331 330 327 327 329 332 332 332 334 335 337 336 334 333 332 331 330 329 328 326 326 325 324 323 323 323 323 322 322 321 321
333 333 335 333 334 333 333 333 333 334 334 334 334 333 333 333 332 333 330 329 328 329 329 324 322 323 325 326 323 324 326 327 327 327 327 329 329 330 331 332 333 336 335 337 336 336 337 337 336 336 334 334 334 333 332 331 330 328 330 331 332 333 334 336 337 336 334 332 331 331 330 329 327 326 325 324 323 322 322 322 322 322 321 321 320
333 332 333 333 333 333 334 334 335 335 335 335 334 333 331 331 331 330 332 328 328 329 328 324 322 321 321 322 322 323 323 327 327 327 328 328 329 330 330 330 330 331 332 338 337 335 335 337 336 336 335 334 334 334 333 332 331 328 330 331 332 333 334 335 337 335 333 332 332 331 330 328 327 325 325 324 322 321 321 321 321 321 321 320 320
333 333 333 333 332 332 333 334 336 336 335 335 334 333 332 331 332 330 329 328 328 329 329 326 322 322 322 322 322 322 322 324 327 328 328 328 328 329 329 329 328 329 329 330 336 336 334 335 338 337 335 334 334 333 333 332 331 329 328 331 333 333 334 335 337 336 333 333 332 331 330 328 327 326 325 323 322 321 321 321 321 320 320 319 319
333 333 332 331 331 332 333 333 335 335 334 334 334 332 332 331 332 331 329 328 327 327 326 324 323 323 322 322 321 322 321 321 325 328 329 328 328 328 328 328 328 328 331 327 329 332 335 333 335 337 337 335 334 333 333 332 332 330 327 330 332 333 335 335 337 336 335 334 332 331 329 328 327 326 324 323 322 321 320 320 321 320 319 319 319
332 332 330 330 332 331 332 334 336 334 333 333 332 333 332 332 331 332 330 328 328 327 326 325 324 323 322 321 322 322 320 321 322 327 330 327 327 327 327 327 328 333 329 327 327 328 333 334 334 335 335 335 335 334 333 333 331 332 328 329 332 334 335 336 337 337 335 333 332 331 330 328 326 325 325 324 322 320 320 320 320 320 319 319 318
329 332 330 331 332 332 332 334 335 335 333 332 332 333 333 332 331 330 332 331 329 328 329 330 328 325 323 323 322 320 320 319 320 327 328 328 326 326 327 327 327 328 327 327 327 327 327 332 334 333 335 333 334 334 334 334 332 332 331 328 331 333 335 336 338 337 335 334 332 331 329 327 326 325 325 324 322 321 320 320 320 319 319 318 318
323 328 329 332 332 332 331 331 332 331 331 330 329 332 333 331 330 330 332 333 331 330 330 329 329 329 327 322 322 321 321 319 321 322 326 328 328 329 328 327 327 327 326 326 326 326 325 326 329 328 331 333 333 335 334 334 334 333 333 329 330 333 334 336 338 336 335 334 333 331 329 327 326 325 325 323 322 321 321 320 320 319 318 318 318
321 321 324 327 328 331 331 332 332 331 329 329 328 330 333 332 330 330 330 331 333 333 332 330 328 326 324 326 326 323 321 321 319 321 323 326 328 329 328 328 327 327 326 325 325 326 325 325 327 326 327 332 333 333 333 333 333 333 333 331 330 333 333 336 338 337 336 334 332 331 328 327 326 325 324 323 322 321 320 320 319 319 318 317 317
323 320 321 325 322 325 329 332 332 331 329 328 329 331 331 330 330 330 330 329 331 333 332 331 327 324 321 322 323 323 324 323 320 320 321 322 324 328 329 328 328 327 327 325 324 325 325 325 325 325 325 327 331 332 331 331 331 333 334 333 329 331 333 334 338 338 336 335 333 331 329 327 326 325 324 323 322 321 320 319 319 318 318 317 317
320 320 320 321 320 320 322 326 331 329 328 328 329 329 329 330 331 329 329 328 327 331 332 329 322 321 319 319 319 323 321 320 320 320 320 321 322 324 326 328 328 328 328 326 325 324 325 325 325 325 325 325 328 329 329 330 330 333 334 334 332 330 333 333 336 337 336 335 333 332 328 327 326 325 324 323 322 321 319 319 318 317 317 317 316
316 319 318 319 319 318 320 320 323 329 326 324 326 327 328 328 328 328 327 328 327 331 331 329 324 323 320 319 315 317 317 317 319 320 320 320 320 321 323 324 328 329 329 327 326 325 325 325 325 325 324 325 326 327 328 329 328 331 333 334 333 329 330 333 336 338 337 335 333 332 329 327 326 325 324 324 322 321 319 318 318 317 316 316 316
314 316 316 316 317 317 317 317 319 322 323 323 323 325 326 327 327 327 328 325 326 325 330 330 328 326 317 318 317 315 312 315 316 319 321 321 320 320 321 322 323 327 327 327 326 326 326 325 325 325 325 324 326 327 327 327 329 330 329 332 333 331 329 331 335 339 337 335 334 333 329 328 327 326 325 323 322 321 319 318 317 316 317 316 315
313 314 318 314 315 316 316 316 316 317 318 319 319 321 323 324 327 326 326 326 325 324 327 329 329 329 325 319 315 314 313 314 315 316 318 319 321 321 321 321 321 322 324 326 327 327 327 325 325 325 324 325 325 326 326 327 327 330 329 331 332 332 330 330 333 336 339 338 335 334 331 328 327 326 325 323 322 320 319 318 317 316 316 316 315
312 313 315 318 313 314 314 316 316 316 319 316 316 316 318 319 323 326 325 326 326 323 322 325 328 328 328 326 322 316 316 319 316 311 317 320 321 322 322 321 321 320 321 324 325 326 327 326 324 324 324 324 325 326 326 326 328 327 328 328 329 329 325 327 333 334 339 338 336 335 333 330 327 326 325 324 322 320 319 318 317 317 316 316 315
313 312 312 315 313 313 313 314 315 315 319 314 314 315 316 318 320 320 322 324 325 324 323 321 324 326 328 327 326 325 326 321 316 316 314 316 318 319 320 321 321 320 320 320 323 324 325 326 325 324 325 324 325 325 325 326 327 327 329 327 326 325 323 320 324 333 336 338 337 335 334 331 328 326 325 324 322 320 319 318 318 318 317 315 315
312 313 311 314 313 311 312 313 314 316 317 313 313 314 315 315 316 316 317 318 320 322 321 321 320 321 323 324 324 326 326 325 324 320 317 315 317 320 320 320 321 321 320 320 320 323 323 325 326 325 324 325 325 325 325 325 325 326 327 325 323 324 322 320 317 319 326 336 337 336 335 332 330 327 325 324 322 321 320 319 319 318 317 316 315
311 312 312 313 316 312 310 310 310 313 316 314 313 313 313 312 313 313 314 315 316 318 319 320 320 322 323 321 322 322 323 323 324 324 318 316 316 317 318 320 320 320 321 321 320 320 323 324 325 326 325 325 326 326 326 325 325 325 326 323 323 322 322 319 315 317 317 329 336 336 335 333 332 329 326 324 323 321 320 319 319 318 317 317 316
310 310 310 310 310 312 310 310 309 312 315 310 310 310 311 312 312 312 314 313 314 315 316 318 320 321 321 322 321 320 322 323 323 322 321 321 317 318 318 317 316 317 320 321 321 321 320 323 324 325 326 326 326 326 326 325 325 325 325 323 322 321 320 317 314 314 316 324 335 335 336 335 333 330 327 325 324 323 321 320 320 320 319 318 317
310 311 309 310 310 316 310 311 313 314 312 310 310 310 310 310 312 312 312 312 313 313 314 316 317 319 320 320 320 321 321 320 321 320 320 319 319 319 320 321 319 319 322 322 322 323 321 320 322 323 324 325 327 327 326 326 325 325 323 323 321 321 318 317 316 314 316 325 334 335 335 335 333 331 329 326 325 323 322 322 321 321 320 319 319
309 309 309 310 312 310 312 308 311 308 309 310 311 311 311 310 310 309 310 310 311 313 312 313 313 315 317 320 321 322 321 321 322 322 320 319 319 318 319 320 321 321 323 323 323 323 322 320 321 322 324 324 325 327 327 327 326 325 323 322 321 318 316 317 316 316 314 324 329 333 335 335 334 333 331 328 326 325 324 323 322 322 321 320 320
306 306 307 309 311 309 308 309 307 309 309 308 308 308 308 309 309 309 308 308 309 309 310 311 312 313 313 318 321 322 322 323 324 324 324 322 321 318 319 320 317 318 321 323 321 323 323 322 321 322 322 322 323 325 326 326 326 324 322 322 320 317 316 315 314 313 312 315 322 328 331 334 334 333 332 329 326 325 324 322 319 316 316 318 318
305 306 307 308 309 309 310 308 307 307 309 308 308 308 308 308 308 308 308 309 309 309 309 309 311 312 313 314 316 318 321 323 323 323 322 322 320 318 318 316 316 317 319 321 323 321 321 322 322 321 322 322 323 323 324 325 326 324 322 324 319 318 316 314 313 313 312 312 314 318 321 325 328 328 328 328 325 320 317 316 313 312 311 312 316
306 305 308 307 307 307 307 307 307 307 308 307 309 307 307 309 308 308 308 310 310 310 308 308 311 310 311 311 313 314 317 320 322 323 323 323 322 322 320 316 316 316 315 317 319 320 320 322 321 322 321 321 321 322 323 324 324 322 320 324 322 316 315 313 313 312 311 312 313 315 316 318 320 320 319 318 316 317 318 316 314 312 310 311 311
305 306 307 306 306 306 307 307 307 307 308 308 307 307 307 307 307 307 306 310 308 307 308 308 309 309 309 311 311 312 315 317 321 322 324 323 323 323 321 318 314 313 316 314 314 318 321 320 321 322 321 320 321 321 323 323 324 321 323 324 323 320 314 313 312 311 311 311 312 312 314 315 314 315 315 316 317 318 317 316 314 311 310 309 309
308 306 306 305 305 305 306 306 306 306 306 307 307 306 306 306 306 306 306 306 307 307 307 308 309 309 309 310 311 312 314 316 318 321 323 323 323 323 322 320 318 314 313 314 315 314 317 322 319 321 323 320 321 321 320 321 321 321 322 323 322 322 317 313 311 310 310 309 310 311 312 313 312 312 314 317 317 317 316 315 312 310 310 309 307
308 309 305 305 306 314 305 306 305 305 306 306 306 306 306 306 306 306 306 306 306 307 308 309 308 308 309 309 310 310 312 313 315 317 320 322 322 322 322 322 321 317 315 313 314 317 316 317 321 320 323 322 322 321 320 320 317 320 322 322 320 320 315 312 310 310 310 310 310 312 312 313 312 311 314 317 316 315 314 312 310 308 310 308 306
308 305 304 304 303 304 304 303 304 304 305 304 305 304 304 304 305 305 306 306 306 306 307 307 308 308 308 308 309 310 311 312 313 315 317 320 321 322 322 321 322 320 318 316 312 318 320 318 319 322 323 324 325 322 323 321 319 319 321 320 319 316 314 313 310 310 310 311 311 312 313 313 311 310 313 315 316 314 312 311 311 309 308 306 304
304 304 303 303 303 303 303 303 303 303 303 303 303 303 302 302 303 304 304 303 304 305 306 307 307 308 307 307 308 309 310 310 310 312 314 316 319 320 321 321 321 321 320 319 316 316 320 319 318 321 324 322 323 323 322 321 320 316 320 320 319 314 314 316 310 309 310 310 310 311 311 311 311 310 310 312 313 312 310 310 308 307 306 304 304
304 303 303 302 302 303 302 303 303 301 301 301 301 301 301 301 302 301 302 302 303 304 305 305 306 306 307 306 307 307 308 307 308 309 310 311 314 317 319 320 320 320 320 319 317 317 321 321 321 320 323 323 323 323 322 322 321 319 317 318 317 314 314 315 314 309 308 309 309 309 310 310 311 310 308 309 310 309 308 307 306 305 304 303 301
303 303 302 302 302 302 301 301 301 301 301 300 300 300 301 301 300 302 302 301 301 301 302 302 303 305 305 305 305 306 306 306 307 307 308 309 310 311 314 318 320 320 321 319 318 317 317 319 319 319 320 322 321 321 321 320 319 317 318 318 316 315 314 314 314 313 307 309 308 308 309 309 309 308 307 306 307 306 306 305 304 303 302 301 300
303 302 303 301 302 301 301 301 300 300 300 299 299 300 300 299 299 299 301 300 300 300 301 301 302 303 303 303 304 305 306 306 306 307 307 308 309 309 310 313 316 319 321 320 319 317 317 318 320 319 318 319 321 321 320 320 319 318 317 316 316 315 315 314 314 315 308 307 307 308 308 308 308 307 307 306 305 304 303 303 302 301 300 299 299
303 303 302 302 302 301 301 301 299 299 299 299 299 299 300 299 299 300 299 300 300 300 301 301 301 301 302 302 303 304 305 305 305 305 306 307 307 307 308 309 313 316 319 320 320 318 317 316 317 319 318 318 319 321 321 319 317 316 317 315 313 315 314 315 314 315 311 307 307 308 308 308 308 307 306 306 306 304 303 303 301 300 299 298 298
302 301 303 302 301 300 301 300 299 299 299 299 298 298 299 299 299 300 299 299 300 300 301 301 303 302 302 301 302 302 303 303 304 304 305 304 306 306 307 308 310 312 315 318 319 320 318 317 319 319 319 318 320 320 319 318 315 312 314 313 313 314 313 313 314 315 309 307 307 307 308 307 307 307 306 306 305 303 302 302 300 299 298 298 298
301 301 301 300 301 299 299 298 299 298 298 298 298 298 298 298 298 298 299 299 300 300 300 301 301 301 301 301 302 302 302 302 302 303 304 304 305 306 306 307 308 309 311 313 315 316 317 317 318 319 318 318 316 317 319 319 316 312 311 312 311 311 310 310 311 310 310 311 311 310 306 306 306 306 306 305 304 302 301 301 300 299 299 298 298
301 300 299 298 301 299 298 298 297 297 298 298 298 297 298 297 297 297 297 297 298 298 299 300 300 300 300 300 300 301 300 301 301 301 302 302 303 303 304 305 307 308 307 307 309 310 312 313 315 317 318 318 317 316 318 320 318 314 313 311 310 309 307 307 305 306 308 309 309 307 308 308 307 307 305 305 304 302 301 300 299 299 298 298 297
300 299 298 298 297 297 296 296 297 298 296 297 297 297 297 296 296 295 295 295 296 296 297 297 298 298 299 299 299 299 300 300 301 302 301 300 300 300 301 302 304 304 305 305 305 306 307 309 310 312 316 316 316 317 316 315 313 311 312 311 311 309 308 308 308 305 305 307 307 307 306 305 304 304 303 303 302 301 300 300 300 299 298 297 297
301 298 298 297 296 295 295 295 295 296 296 296 297 297 295 294 294 294 294 295 295 295 295 296 296 297 297 298 298 298 302 304 302 301 301 300 300 299 300 301 301 301 302 302 303 304 305 306 307 309 311 313 315 315 314 311 311 312 313 311 310 310 309 307 306 305 305 305 306 306 305 306 305 304 303 303 302 300 300 300 300 300 298 296 296
298 297 296 295 295 294 293 294 294 295 295 296 299 297 296 295 294 294 294 294 294 294 294 294 294 295 296 296 299 302 301 300 299 298 297 297 298 299 299 299 299 299 299 299 300 301 302 303 304 305 305 308 312 312 313 314 315 315 309 310 309 305 305 304 301 303 305 306 305 303 305 305 305 303 302 302 301 301 300 299 298 298 298 296 296
296 297 295 294 293 293 292 292 293 294 294 296 296 294 294 294 295 294 293 293 293 293 293 293 293 294 295 295 295 298 300 299 299 297 296 295 295 296 296 298 299 299 298 298 298 300 300 301 302 304 304 305 308 312 313 314 314 314 313 311 310 305 304 302 302 300 303 305 305 304 303 303 304 302 301 302 301 300 299 298 298 298 297 296 296
295 294 293 293 292 292 292 292 292 292 293 296 294 294 293 293 294 295 294 293 294 293 293 293 293 293 293 294 295 296 296 297 298 298 298 297 295 295 295 295 295 295 296 298 298 298 299 299 301 302 304 305 307 310 311 311 312 312 312 311 309 305 305 304 306 305 303 305 304 303 303 300 301 302 300 300 300 300 299 298 297 297 296 296 295
294 292 291 291 291 291 291 291 291 291 292 294 293 293 293 293 292 293 293 293 293 293 292 292 292 292 293 293 294 294 295 298 299 297 296 297 296 296 296 296 295 295 293 293 294 299 300 300 300 301 303 305 305 308 310 311 311 311 310 310 308 306 306 306 307 308 298 304 304 302 302 299 299 299 300 300 299 299 298 297 296 296 296 295 295
290 290 289 290 291 290 291 291 291 291 292 294 293 293 293 292 291 292 292 291 292 292 292 292 292 292 292 292 292 293 293 294 295 295 295 295 295 296 296 296 297 297 296 295 294 293 296 300 300 300 303 305 306 307 309 308 309 308 308 308 309 307 305 305 303 297 298 304 304 302 301 296 297 298 298 300 298 298 298 297 296 296 295 295 295
290 289 289 290 290 292 290 289 289 291 292 293 292 292 292 291 291 291 291 292 291 291 291 292 292 292 292 292 292 292 292 293 294 294 294 294 294 295 295 295 296 296 297 298 298 298 298 299 300 301 303 304 305 307 309 311 312 313 312 311 309 304 300 296 295 297 297 302 304 303 300 300 296 297 298 298 296 297 297 295 295 295 295 294 294
288 288 289 289 289 288 288 288 288 289 290 292 291 291 292 291 291 292 290 290 290 290 290 291 291 291 291 291 291 291 291 292 293 292 293 294 294 293 293 294 294 295 296 297 297 297 299 299 299 300 301 302 300 304 305 307 310 312 308 304 304 302 301 299 297 292 293 298 303 303 302 296 295 295 297 296 295 293 294 294 294 295 295 294 294
288 288 289 288 288 287 287 288 287 288 289 291 291 291 291 291 291 290 289 289 289 289 289 290 290 290 291 291 291 291 291 291 292 291 291 292 292 292 292 293 294 294 295 296 296 295 294 294 294 294 294 294 294 295 295 296 299 307 306 303 302 302 301 299 296 293 293 295 299 301 301 294 293 295 295 294 293 293 292 293 293 294 294 295 294
287 287 286 286 286 287 287 287 287 288 289 291 291 291 291 291 291 289 289 288 288 288 288 288 289 289 290 293 294 291 290 290 291 291 291 292 292 292 292 292 292 293 294 295 296 297 295 295 294 294 293 293 294 295 296 296 296 299 307 304 303 301 301 301 299 295 293 293 296 300 298 296 292 295 293 292 292 293 293 293 294 293 294 294 294
287 285 289 285 285 285 285 287 293 292 289 290 291 291 291 291 291 290 288 287 287 286 287 287 287 288 288 290 292 292 291 291 290 290 290 291 292 292 292 291 291 291 292 294 295 295 295 296 296 296 296 297 300 301 302 298 297 298 306 310 306 302 302 301 300 293 291 292 295 300 298 295 290 293 293 288 287 291 292 292 291 293 293 293 293
Wind_Speed
4 4 4 4 4 4 4 4 4 5 5 4 4 4 4 4 5 5 4 4 5 5 5 5 4 3 5 6 5 2 4 5 6 6 5 6 6 9 14 13 12 12 14 14 14 14 13 12 11 10 9 8 7 6 6 6 6 5 6 6 5 3 1 2 6 10 10 9 9 9 9 9 9 10 11 11 11 11 12 12 13 14 15 15 15
4 3 4 4 4 4 4 4 4 3 4 4 3 3 4 3 4 4 5 5 4 5 4 5 5 4 6 7 5 4 5 6 6 7 7 6 6 6 14 13 13 13 13 14 15 14 14 13 12 11 10 10 9 8 7 6 6 7 7 6 5 3 2 1 7 10 10 9 9 9 9 9 10 10 11 11 11 11 11 12 13 14 15 15 15
4 4 3 4 4 4 4 4 3 3 3 2 1 1 1 4 5 5 4 5 6 5 5 5 6 6 7 7 7 5 5 6 7 6 7 7 6 6 9 15 14 14 13 13 13 14 14 13 13 12 12 10 9 9 8 7 7 7 8 7 5 4 3 2 8 10 9 9 9 9 8 9 10 10 10 10 10 11 11 12 13 13 14 14 15
4 4 4 3 4 4 4 4 3 3 4 1 3 2 1 1 2 3 4 5 6 5 5 6 6 7 7 8 7 5 6 7 8 8 7 7 7 6 6 9 13 13 13 13 13 13 14 14 13 13 12 11 10 10 9 8 8 8 9 8 7 5 4 3 9 10 9 9 9 9 9 9 10 10 11 10 10 10 11 11 12 13 13 13 14
4 4 4 4 4 4 4 5 4 3 6 7 6 2 3 2 0 1 1 2 3 5 4 6 6 7 7 8 6 6 6 7 8 8 7 7 7 7 6 7 7 12 13 13 13 13 13 14 14 13 12 12 12 11 10 9 9 8 9 10 8 7 6 5 10 11 10 9 9 9 9 9 10 10 11 10 10 10 10 11 12 13 13 13 13
3 4 4 4 4 4 4 3 4 4 4 3 4 1 3 6 2 1 1 0 2 4 4 5 6 5 7 7 6 5 6 7 8 9 8 7 7 7 7 7 7 6 8 13 14 14 13 13 14 14 13 12 11 11 11 10 9 8 10 10 9 8 7 4 11 12 11 10 10 10 9 10 10 10 11 10 10 10 10 11 11 12 12 12 12
2 2 4 4 4 3 2 1 3 4 4 5 4 4 4 6 3 4 2 1 2 3 5 6 5 6 7 7 7 6 5 7 6 7 8 9 7 7 7 7 7 6 7 6 10 14 15 13 13 14 14 14 13 12 12 11 11 10 10 10 10 9 7 6 9 12 11 11 11 10 10 10 10 11 11 10 10 10 10 10 11 12 12 11 11
3 2 2 2 3 3 2 2 3 4 4 4 4 5 5 3 3 3 5 3 3 4 2 5 4 6 6 6 5 4 5 5 8 8 7 5 7 7 7 7 7 8 7 7 7 9 15 15 13 14 15 15 14 13 12 11 12 11 10 11 11 10 9 8 9 13 12 12 11 11 11 11 11 11 11 11 10 10 10 10 11 11 11 11 11
2 2 2 2 1 3 4 3 3 2 2 3 4 5 6 5 3 4 3 3 4 4 4 2 3 3 3 4 4 5 5 6 7 8 7 7 7 8 7 8 8 8 7 7 7 6 12 15 15 14 15 14 14 15 14 13 13 12 11 12 13 12 11 10 9 13 13 12 12 12 12 12 11 11 11 11 11 10 10 10 11 11 11 11 11
1 1 1 1 0 4 4 4 1 3 3 2 3 4 5 5 5 2 3 1 3 3 4 4 4 3 3 4 5 3 5 5 4 6 8 8 7 7 9 8 7 8 8 7 7 7 7 12 16 14 14 14 14 16 16 15 15 14 13 13 14 14 13 11 11 13 13 12 12 12 12 12 12 12 12 11 11 11 10 10 11 11 11 11 11
5 4 2 1 1 4 5 5 2 4 3 2 2 2 2 2 3 2 4 4 3 3 2 4 3 3 4 3 4 5 5 4 3 6 7 9 9 9 7 7 7 7 7 7 7 7 7 6 7 7 9 15 15 15 16 16 16 15 15 15 16 15 14 14 12 15 13 13 12 12 12 12 12 12 12 11 11 11 11 11 11 11 10 10 11
5 4 4 3 2 2 3 4 5 4 6 5 1 1 2 2 3 5 4 3 2 3 3 4 3 3 3 5 3 3 4 4 4 4 6 7 8 7 8 7 7 7 7 7 7 7 7 7 6 7 7 11 16 15 16 14 13 15 16 16 17 16 15 15 12 15 14 13 12 12 12 12 12 12 12 12 11 11 11 11 11 11 11 10 10
5 5 5 4 3 2 2 5 4 6 5 2 3 3 2 4 2 1 2 3 4 3 3 3 2 5 3 3 5 3 4 4 5 5 5 6 6 7 7 7 8 8 8 7 7 7 7 7 7 6 7 6 10 15 15 14 13 13 16 16 17 17 17 16 12 17 15 14 13 13 12 12 13 13 12 12 12 11 11 11 11 11 10 10 10
4 5 5 5 4 5 5 2 2 4 3 1 2 2 3 3 4 2 2 4 3 1 3 1 1 3 2 4 4 5 3 3 5 5 6 5 6 7 7 8 9 9 8 7 7 8 7 7 7 7 7 7 7 7 9 11 12 14 15 17 17 18 17 17 15 16 16 15 14 14 13 13 13 13 13 12 12 12 11 11 11 11 11 10 10
4 4 4 4 4 5 4 4 1 1 0 1 1 1 1 5 4 3 2 3 4 2 3 2 3 1 1 1 3 2 3 2 2 5 6 5 3 5 7 8 11 9 8 8 8 8 8 8 8 8 8 7 7 8 8 9 11 15 16 16 17 17 18 18 18 16 17 16 15 15 15 14 14 14 13 13 12 12 12 12 11 11 11 10 10
3 3 3 3 4 4 3 4 4 1 1 0 2 2 4 4 3 5 4 4 3 3 4 4 3 0 2 2 3 2 3 4 4 5 5 6 4 6 5 7 8 9 6 8 9 8 8 8 9 8 8 9 8 8 8 9 14 16 16 15 16 16 19 19 20 18 20 18 17 16 16 15 14 14 14 13 13 12 12 12 12 12 11 11 10
2 3 3 3 3 3 4 3 4 3 3 4 2 0 2 4 4 3 3 3 2 3 2 3 2 1 2 1 2 1 2 2 1 5 2 5 7 7 6 6 6 8 8 9 8 8 8 8 8 8 8 9 8 9 9 9 9 9 12 15 16 16 18 20 21 20 19 20 20 17 17 16 16 15 14 14 13 13 13 13 13 12 11 11 10
1 2 3 3 4 3 4 4 4 5 5 4 3 4 5 4 2 1 2 3 4 3 2 2 5 5 7 3 2 0 3 3 1 4 4 3 5 5 7 7 5 5 7 8 9 8 8 8 8 9 9 9 9 9 9 9 9 9 9 11 17 17 17 18 20 22 19 21 21 19 19 17 17 16 15 14 14 14 14 14 13 13 12 12 11
1 2 3 3 4 4 3 3 4 4 4 6 6 4 3 3 3 4 3 2 1 3 4 2 1 4 4 5 5 5 3 1 3 2 4 4 2 4 5 4 4 4 5 7 8 8 8 8 9 9 9 9 9 9 9 9 12 12 15 16 17 18 17 17 17 18 20 19 22 20 21 19 17 17 16 15 15 15 15 14 14 13 13 12 11
1 0 1 1 2 3 3 4 4 3 4 5 4 3 5 4 4 3 3 4 3 2 3 2 2 3 1 3 3 5 7 7 6 3 3 4 6 3 2 3 3 4 5 5 7 8 9 9 9 9 8 10 10 9 9 9 10 11 11 16 17 18 18 17 17 16 16 13 22 22 21 20 19 18 18 16 16 15 15 15 14 14 13 12 12
1 1 2 3 2 3 3 3 3 2 2 3 4 5 5 5 7 7 6 6 4 3 2 3 2 3 3 3 2 3 3 4 6 6 6 5 8 6 9 3 2 4 5 5 5 5 8 10 10 11 10 10 10 10 9 9 9 10 12 17 18 18 18 17 17 16 15 10 18 22 21 20 19 19 18 18 16 16 16 15 15 14 14 13 12
0 0 2 2 3 3 3 3 2 2 1 2 2 4 5 5 5 5 4 5 5 5 4 5 4 4 2 3 3 2 3 3 4 4 5 7 8 7 5 7 8 4 1 3 3 5 6 7 9 10 9 9 9 9 10 10 10 9 12 18 18 18 18 18 18 17 15 12 17 22 21 20 19 19 19 19 18 17 17 16 16 15 14 13 12
2 1 1 0 0 1 2 2 2 2 3 4 4 3 3 4 4 5 5 6 6 7 6 4 4 5 4 3 4 5 5 5 5 4 5 5 6 8 8 9 10 11 10 4 4 5 6 6 8 9 9 9 9 9 10 11 12 13 17 18 19 19 19 20 19 18 17 15 18 21 22 21 20 19 19 19 18 18 17 17 16 15 15 14 13
1 2 2 1 0 1 2 2 2 3 4 3 4 4 3 3 3 4 4 4 4 5 5 6 5 4 4 5 5 4 4 5 5 5 5 7 7 9 8 6 7 7 8 7 6 7 6 7 8 8 9 9 9 10 10 11 12 18 14 17 19 20 20 20 20 19 18 17 18 19 22 22 22 21 19 20 19 19 18 18 17 16 15 14 13
2 3 1 1 1 1 1 1 2 3 3 3 2 3 3 3 4 4 3 4 3 3 5 5 5 5 5 4 5 6 6 5 5 6 6 6 7 9 8 6 8 8 6 4 5 3 6 6 7 7 8 7 7 8 9 10 10 14 16 13 20 20 21 21 20 20 19 18 17 19 19 21 23 23 21 19 21 20 19 17 15 13 12 12 13
3 4 3 3 2 2 2 2 2 2 2 2 3 4 4 3 3 4 4 4 3 3 3 3 4 5 3 4 5 5 6 6 6 6 7 7 7 7 8 4 4 8 5 3 4 6 4 4 6 6 7 7 8 8 8 10 10 14 18 13 17 21 21 20 21 20 20 19 18 19 19 17 19 18 18 19 19 16 15 14 13 12 11 10 10
5 3 1 2 3 3 3 2 2 2 3 3 3 3 4 3 3 2 3 4 4 4 3 3 5 5 5 5 6 5 5 6 6 6 6 7 8 7 7 8 7 6 7 4 4 7 9 4 3 5 6 6 7 7 9 8 11 15 16 13 10 19 20 21 20 21 21 21 20 21 20 18 16 16 17 16 16 15 14 13 12 12 11 11 9
3 3 2 2 2 2 2 1 1 1 0 0 0 2 3 4 5 4 5 3 4 5 5 4 4 4 4 4 5 6 6 5 5 6 6 6 6 6 6 5 9 11 6 7 5 7 5 6 4 4 5 6 7 8 9 11 9 13 15 10 9 11 19 20 21 21 21 21 21 22 21 19 16 18 17 16 15 15 15 14 13 13 12 10 8
4 2 3 2 3 2 0 0 1 1 1 1 1 3 3 3 4 5 6 6 5 5 5 5 5 4 5 4 5 6 6 6 5 5 6 6 6 6 6 7 7 9 10 8 7 7 4 4 5 4 4 6 6 6 6 7 8 9 9 10 9 9 16 19 20 20 21 21 21 22 22 21 17 17 19 18 17 15 15 14 13 13 12 10 9
4 3 3 2 1 1 1 0 1 1 2 2 3 3 3 4 4 4 5 5 7 6 5 5 6 5 5 6 5 6 5 6 6 6 5 6 7 7 7 6 6 7 9 11 8 5 5 3 5 5 1 4 3 3 5 6 8 8 7 8 8 9 15 20 20 21 21 21 21 21 22 21 19 17 19 19 17 16 16 14 13 13 12 12 12
4 3 3 3 2 1 1 2 2 2 2 2 2 3 3 3 3 5 4 4 5 6 6 5 5 4 5 6 6 6 5 5 5 6 5 5 7 7 7 6 7 7 8 9 11 6 6 8 5 4 3 4 3 3 3 3 4 9 8 8 9 12 17 17 22 22 22 22 21 21 21 21 20 18 19 19 19 18 16 15 14 14 14 14 13
4 4 4 4 3 3 2 2 2 3 3 3 3 3 3 3 3 3 4 3 4 5 6 6 6 5 6 7 7 6 6 5 5 5 6 6 5 7 8 8 7 7 8 9 10 14 4 5 5 5 4 3 3 4 4 3 2 7 6 7 9 10 10 10 19 22 22 22 22 22 21 21 20 20 20 20 20 19 18 17 15 15 15 15 14
4 4 4 4 3 3 3 3 3 3 3 3 3 3 3 4 4 3 3 3 4 5 5 6 5 6 7 7 7 6 5 6 6 6 6 6 6 6 6 7 8 7 9 9 10 11 11 5 6 5 6 3 6 5 7 7 8 6 7 7 6 7 8 8 10 18 21 22 22 22 22 21 21 20 20 20 20 19 19 18 17 16 16 15 15
4 4 4 3 3 3 3 4 3 3 3 4 4 3 3 4 4 3 3 3 3 4 4 5 6 6 6 8 8 7 6 7 6 7 5 6 6 6 6 6 8 9 8 9 10 10 14 5 5 4 4 6 10 6 8 8 8 4 7 6 5 7 8 8 8 11 20 21 22 23 22 22 21 20 20 19 18 18 18 18 18 17 16 16 15
3 4 4 4 4 3 3 3 3 3 3 4 4 3 4 4 4 4 3 3 3 4 5 5 6 5 6 6 8 8 6 6 6 6 5 6 5 6 7 7 8 8 9 9 10 11 11 12 7 7 5 5 8 7 6 6 5 6 6 7 7 6 6 7 8 7 17 21 22 22 23 23 22 21 20 20 19 19 19 19 19 18 17 16 15
4 3 3 4 3 3 3 3 3 3 3 3 3 3 4 4 4 4 4 4 4 4 5 5 5 5 5 5 6 6 7 7 7 7 6 5 6 5 6 7 7 8 8 8 10 11 10 12 6 7 5 6 6 6 5 3 3 5 6 4 3 5 5 6 7 7 12 20 21 22 23 22 22 21 21 20 19 19 19 19 19 19 17 16 15
3 3 2 2 3 3 3 3 2 2 3 2 3 3 3 3 4 4 5 5 5 5 6 6 6 5 5 5 6 5 5 6 7 7 6 7 7 7 7 6 6 6 7 7 8 9 11 12 10 6 5 6 6 6 4 5 3 2 1 4 5 5 6 5 4 5 6 16 17 19 20 20 20 20 20 20 19 18 18 18 18 18 17 16 16
3 3 3 2 3 3 3 3 1 1 1 0 0 1 2 2 3 3 3 4 4 5 6 6 6 5 5 4 4 3 4 4 6 6 7 7 7 8 8 8 7 7 6 5 6 7 9 11 10 10 6 7 5 5 6 7 6 4 3 2 2 3 4 4 4 4 4 7 8 9 10 12 16 19 20 20 20 20 19 18 17 17 17 16 16
4 3 2 2 1 2 1 1 2 2 2 1 1 1 1 2 2 2 3 4 4 4 4 5 5 5 4 4 5 5 5 4 5 6 6 6 6 7 8 9 8 8 8 7 6 7 7 8 9 10 9 6 6 7 5 6 6 4 6 4 5 4 2 2 3 1 4 7 8 9 10 12 14 14 17 19 21 22 21 19 18 18 17 17 16
4 3 3 3 1 1 3 3 2 2 1 1 0 0 0 1 1 2 3 4 4 4 4 5 5 5 5 5 5 5 6 5 5 6 5 7 6 7 7 6 7 8 8 8 7 6 6 7 8 9 8 7 4 6 1 3 3 1 5 8 11 8 8 6 7 8 5 6 7 7 6 7 8 11 14 17 19 19 20 19 19 18 18 17 16
3 4 4 3 3 3 2 3 2 1 1 1 2 2 2 3 3 4 4 4 5 6 6 6 5 6 6 6 6 5 7 10 11 9 9 8 6 8 8 5 6 7 7 7 7 7 7 7 8 7 8 8 6 6 7 5 9 11 10 8 6 7 7 6 1 1 4 6 6 6 7 9 9 9 9 8 9 13 14 16 14 19 18 17 17
4 3 4 3 4 4 3 1 1 0 1 2 3 6 6 4 4 5 5 5 5 5 6 7 6 6 7 6 7 11 13 13 12 12 12 13 12 8 7 6 7 7 7 7 7 6 6 7 7 7 9 9 8 5 8 9 8 7 4 6 8 5 5 4 1 2 5 7 7 8 8 6 8 8 8 10 8 11 9 10 10 12 15 18 17
4 4 4 4 4 3 3 2 0 2 3 3 8 9 10 11 7 6 6 6 5 6 6 7 7 7 7 6 6 8 10 10 10 13 12 13 13 14 14 12 10 8 8 8 7 6 7 7 7 7 8 9 9 6 6 8 8 10 10 10 11 6 7 8 9 1 4 9 9 9 8 6 8 10 9 9 8 8 8 10 13 16 18 18 18
3 4 4 4 4 3 2 1 1 3 4 6 10 11 11 12 10 8 6 6 6 6 6 7 7 7 7 7 6 6 6 7 8 9 11 13 14 14 15 15 15 14 12 10 9 8 7 8 9 9 7 8 9 7 5 3 6 8 9 9 10 10 9 10 10 10 7 12 9 8 8 4 4 5 7 9 9 8 8 10 15 17 17 18 17
4 4 4 3 3 2 1 2 3 3 4 7 10 12 12 12 13 10 6 6 7 6 6 7 7 7 7 7 8 7 6 11 10 8 8 10 12 15 15 16 16 15 15 15 14 12 8 9 9 10 7 7 8 9 4 5 4 8 7 8 8 9 10 11 11 10 5 12 8 8 10 8 9 10 11 8 7 8 9 10 15 16 17 17 17
4 3 4 3 1 1 1 2 3 4 4 8 11 12 12 12 12 9 5 7 7 8 8 8 8 8 8 9 9 9 7 8 8 9 9 10 10 10 11 11 11 13 14 15 14 14 11 8 8 10 8 5 9 6 5 3 4 6 6 8 7 9 11 10 2 1 4 11 15 11 7 5 9 9 11 8 8 7 8 11 17 17 17 17 16
5 4 3 1 0 1 2 3 3 4 5 10 11 12 12 12 12 10 7 7 8 8 8 8 9 9 9 9 9 9 9 8 8 9 10 10 10 11 11 12 12 11 11 10 9 8 8 7 8 10 9 7 7 8 8 7 9 9 9 12 11 3 2 4 5 3 3 6 5 6 11 7 6 8 10 7 7 6 4 9 16 17 18 17 16
4 3 1 1 1 1 2 2 3 4 6 10 12 12 13 13 14 8 7 7 8 8 8 7 7 7 7 7 8 9 10 10 11 14 14 11 12 13 13 13 13 12 13 12 13 13 12 10 9 10 10 10 10 10 10 10 10 9 7 0 4 4 6 4 6 1 3 5 8 10 6 5 7 10 6 4 6 6 6 5 13 17 17 16 16
4 3 2 1 2 2 2 2 3 4 5 9 12 13 13 14 10 7 7 7 7 8 8 6 7 7 8 8 9 10 10 10 12 15 16 15 13 15 15 15 13 13 13 9 12 16 17 18 18 18 17 16 16 17 17 18 15 12 6 7 8 8 8 9 5 5 7 6 7 7 4 3 6 8 5 4 6 6 6 5 6 12 15 14 14
4 3 3 3 3 3 2 3 4 5 6 9 13 14 15 15 13 9 7 7 8 7 8 8 8 8 9 16 16 12 11 11 14 16 15 14 13 14 14 15 15 15 13 8 8 10 14 17 18 17 16 16 16 18 18 17 17 13 10 12 9 9 11 10 10 9 4 6 8 7 5 5 5 6 6 3 3 2 5 5 5 8 12 12 14
4 3 2 2 3 4 3 3 6 7 8 9 13 14 15 15 13 8 8 7 9 8 8 10 8 9 9 9 16 15 13 14 17 18 18 15 14 14 14 14 16 16 12 7 10 10 9 9 10 9 10 12 12 9 8 12 15 13 12 14 9 12 12 11 10 5 2 6 9 12 11 7 9 8 9 5 5 1 4 6 8 7 8 8 8
Wind_Direction
146 159 159 160 158 162 163 157 156 164 159 178 176 201 194 180 182 184 193 205 213 222 223 239 239 233 232 245 247 179 166 160 167 173 184 188 185 191 187 188 187 187 183 182 182 183 181 179 181 184 185 187 187 181 177 179 173 179 184 159 163 136 86 110 139 122 116 119 120 119 112 106 101 97 93 89 85 82 81 80 79 78 77 76 76
157 159 164 175 168 169 163 169 171 162 156 176 173 183 211 192 194 191 194 208 215 229 221 239 245 229 235 234 220 202 166 161 174 179 184 183 186 196 191 189 191 189 187 187 187 186 187 186 183 182 183 186 183 185 178 181 184 187 192 168 184 188 202 137 147 128 125 126 128 127 121 113 107 103 98 94 92 89 86 82 81 80 80 80 80
161 172 178 173 173 176 181 168 174 161 137 199 189 127 187 192 190 201 210 202 212 216 215 221 235 232 228 225 221 186 169 166 168 183 184 180 183 194 198 195 194 191 190 191 190 191 191 194 186 187 182 187 187 188 177 185 194 204 192 182 191 206 214 199 152 128 132 135 136 130 127 121 114 109 105 102 98 94 90 86 83 82 82 83 83
168 186 172 168 181 187 182 177 178 137 92 14 300 283 256 213 176 177 200 214 223 212 211 220 228 226 219 222 226 191 165 168 170 186 192 179 182 189 199 201 199 197 194 193 190 192 196 195 193 191 191 194 192 192 189 189 199 208 196 188 196 214 217 195 150 138 141 147 144 140 133 127 121 114 110 107 102 96 93 90 88 87 86 85 85
177 186 170 163 173 191 195 182 169 155 172 190 205 245 295 309 179 99 129 200 231 245 234 205 220 220 213 219 211 208 165 168 174 181 190 186 184 187 196 198 201 203 201 194 193 192 197 198 196 197 197 198 199 201 196 194 199 205 205 190 198 218 230 204 161 148 152 154 152 146 140 133 126 119 114 111 107 102 99 97 95 94 91 88 87
186 177 170 174 176 185 200 169 158 175 176 177 201 164 325 299 321 26 53 86 233 255 265 243 216 221 212 217 203 208 157 171 171 182 184 187 190 189 190 193 194 196 202 202 195 197 198 199 200 197 195 203 208 206 202 201 199 199 207 199 203 214 221 212 174 154 156 161 159 153 144 138 132 126 121 117 113 109 106 104 100 98 96 94 93
240 196 182 183 182 162 141 123 160 184 188 186 175 173 200 256 273 311 321 324 292 274 264 240 216 205 218 218 215 223 160 167 177 182 185 192 184 187 189 192 190 193 199 200 201 198 199 200 201 195 200 203 204 213 212 209 204 200 205 212 203 214 229 226 187 160 162 167 165 156 149 143 137 132 127 123 120 116 113 110 105 102 100 98 96
202 191 190 194 174 109 94 166 182 180 191 173 166 178 193 235 286 279 282 291 299 295 283 251 217 210 209 198 218 213 222 156 177 184 195 176 187 189 192 193 192 195 193 196 201 204 200 200 203 196 196 204 203 205 211 212 215 208 206 212 212 217 228 224 199 163 167 169 168 162 155 149 143 138 135 131 129 126 121 115 111 108 104 102 100
202 177 181 213 147 104 265 269 196 158 166 172 176 182 190 182 215 244 286 292 299 298 316 301 259 264 269 238 212 208 216 209 170 185 175 186 193 194 191 197 198 197 193 199 202 205 205 203 204 201 194 199 200 202 207 208 210 210 208 210 213 218 225 226 208 172 175 175 174 169 159 152 149 145 142 139 135 131 128 122 118 114 111 107 103
121 149 166 197 103 119 268 274 16 89 139 175 198 189 188 182 195 143 222 224 278 304 323 335 329 289 251 254 267 230 224 231 190 174 172 185 193 194 200 197 193 197 200 198 202 202 206 207 206 203 198 196 196 204 204 207 204 205 206 212 213 215 221 225 212 182 179 180 178 172 163 155 154 152 148 145 141 139 135 131 126 122 117 113 108
46 52 59 5 152 122 167 253 61 19 332 291 263 272 212 169 192 199 210 207 210 263 279 316 312 313 304 256 239 249 244 243 226 162 185 182 186 196 192 199 195 201 203 204 203 202 205 206 205 202 202 198 196 206 204 207 204 205 205 210 212 213 219 228 219 184 184 186 181 177 168 162 159 157 155 152 148 147 144 137 132 128 124 118 114
36 51 57 49 40 144 154 176 169 184 224 231 270 312 273 205 208 215 257 301 268 230 245 263 282 290 290 294 266 248 255 228 231 210 183 190 188 183 191 195 194 200 206 209 204 204 204 204 202 204 201 202 200 202 200 206 209 207 206 209 212 212 216 226 220 193 184 186 187 181 174 169 164 163 162 159 156 153 148 144 139 134 130 125 120
26 18 24 36 46 52 147 176 175 186 219 202 151 244 352 344 294 236 201 263 279 264 227 218 281 311 330 316 313 286 249 249 232 231 211 190 193 182 193 183 198 198 205 205 207 206 207 203 204 201 201 200 207 205 200 204 207 211 211 209 211 214 214 224 219 198 187 188 189 184 183 175 171 168 167 165 161 158 155 151 145 141 135 130 124
33 35 38 38 28 25 19 22 149 196 167 222 162 210 348 313 285 303 197 243 252 57 294 140 251 217 294 328 328 316 301 259 244 243 227 217 180 193 184 191 196 203 201 196 204 207 210 209 203 202 201 201 201 202 202 205 207 211 215 213 212 213 214 221 222 202 194 190 187 187 190 184 176 173 172 171 167 163 161 156 151 146 141 137 133
55 46 56 52 57 55 35 37 39 253 18 83 90 90 190 259 252 269 290 264 287 300 294 304 284 20 88 37 305 334 324 320 279 258 255 238 212 193 191 197 200 199 196 197 202 204 207 205 203 201 201 201 199 200 201 201 202 209 212 216 217 212 214 218 224 207 200 193 190 185 188 190 181 179 177 177 173 169 165 161 157 152 148 144 138
72 75 71 54 68 62 58 45 44 53 160 145 149 153 187 252 230 229 229 270 215 278 222 210 248 124 293 205 233 165 275 281 256 264 229 245 229 236 207 197 203 201 189 200 206 205 208 200 202 201 202 202 200 200 201 202 206 207 210 214 218 208 212 216 223 214 202 198 188 186 189 190 186 183 182 181 178 174 171 166 162 159 153 146 143
56 77 74 88 72 59 49 46 42 36 53 53 57 334 210 210 201 229 237 235 252 239 298 134 118 160 181 258 272 232 233 255 350 284 279 253 249 240 238 232 194 190 195 209 204 206 204 202 202 202 203 202 204 203 203 204 205 207 210 215 215 208 210 215 218 225 207 202 193 191 192 196 192 186 186 185 182 180 175 171 168 163 158 153 149
59 67 78 57 55 64 60 41 30 20 26 40 32 21 20 31 358 228 256 272 276 278 298 72 154 192 227 233 84 342 317 323 11 268 326 246 260 252 239 239 233 187 192 202 203 203 200 207 199 204 202 201 204 205 202 203 202 203 205 213 214 211 207 212 217 225 222 206 198 191 189 195 197 192 189 188 186 183 179 176 174 169 164 160 154
118 94 77 93 87 76 75 64 42 28 24 34 28 20 11 13 11 26 8 333 338 293 303 298 9 211 222 224 208 203 216 16 290 339 290 317 327 262 272 265 255 233 207 201 201 200 203 204 203 204 203 203 204 206 203 205 205 206 204 206 209 210 207 207 215 222 230 214 204 195 188 198 197 199 192 189 187 185 183 181 179 175 170 166 160
201 238 116 90 105 82 87 75 66 38 33 29 19 5 5 360 17 18 14 15 354 291 300 322 282 299 215 226 220 227 232 233 240 289 330 322 306 309 266 266 278 259 238 220 202 200 197 206 207 204 205 206 205 206 204 202 205 207 210 209 208 209 207 206 208 217 231 225 212 200 192 193 198 201 197 190 188 187 187 186 183 180 175 171 168
9 93 92 109 98 108 101 96 91 84 77 30 9 6 9 1 356 359 358 349 1 334 341 315 302 270 304 300 277 249 250 226 237 220 229 258 270 267 285 308 288 273 255 243 235 211 200 201 204 203 202 205 204 206 204 202 205 206 209 206 206 207 207 206 207 210 218 212 209 209 196 193 196 198 202 195 189 189 190 190 187 185 180 177 176
315 330 72 85 97 105 99 90 91 91 83 79 49 17 360 356 348 348 354 355 348 360 349 322 309 290 252 268 285 296 279 257 219 228 243 233 256 265 275 292 300 290 302 287 263 245 228 213 207 205 205 206 205 204 205 205 205 205 209 204 204 205 205 205 205 205 203 201 205 211 206 194 198 198 200 200 191 190 192 193 192 190 185 183 183
294 303 283 22 65 71 74 63 64 58 36 26 24 29 20 6 348 355 358 356 345 341 342 341 327 320 310 276 256 239 248 259 263 229 230 247 250 256 261 259 261 281 278 262 263 256 232 219 217 213 207 207 207 203 205 209 205 208 204 200 202 203 203 204 203 202 196 194 205 208 210 202 197 197 199 203 196 192 193 196 196 194 190 189 189
232 234 262 323 7 34 51 61 53 44 42 44 30 18 12 17 6 4 349 345 343 341 335 331 333 328 319 311 295 279 265 252 260 251 237 243 244 260 258 263 269 251 269 284 265 257 239 220 219 218 214 208 207 204 207 206 209 209 203 201 200 202 203 204 203 201 197 196 198 202 209 204 199 194 198 204 203 194 195 197 198 197 194 193 194
249 227 254 242 158 114 78 63 53 64 75 48 16 6 6 359 349 342 346 345 335 328 325 312 308 307 300 296 293 299 286 267 263 263 258 265 254 257 257 240 256 272 261 242 266 255 223 223 218 215 215 209 208 208 209 207 208 207 201 201 199 201 202 203 202 200 196 196 198 197 205 210 207 198 197 202 206 201 197 199 198 199 194 197 201
212 216 213 176 154 155 137 121 89 75 51 28 9 352 353 348 339 341 330 316 323 324 310 306 301 292 290 292 290 288 290 284 272 271 264 261 265 258 270 256 235 257 276 251 245 256 272 238 213 210 213 211 205 201 207 211 214 206 198 198 199 201 201 201 201 199 196 193 196 197 200 205 208 203 198 199 203 200 197 196 196 195 190 195 207
186 213 177 145 160 131 124 105 86 58 35 16 359 350 338 339 330 318 314 308 308 311 306 307 305 304 305 298 289 280 275 278 274 266 254 251 257 264 268 280 269 255 264 259 266 235 247 274 220 198 204 210 212 206 207 210 213 205 196 198 196 201 200 200 199 199 197 194 194 198 195 198 199 192 192 193 193 195 195 194 191 189 187 193 206
199 145 165 129 104 75 65 66 86 93 112 135 279 297 308 314 311 315 308 284 293 303 302 299 294 293 290 293 299 291 283 273 264 264 260 253 250 250 251 255 273 276 257 262 257 259 243 246 285 229 206 205 210 208 213 210 211 208 196 196 194 199 202 200 199 198 197 195 195 196 195 194 190 187 187 186 188 191 193 193 189 186 186 188 193
168 154 125 110 128 141 132 75 21 25 2 285 267 275 276 289 291 295 297 297 291 284 286 292 287 292 299 294 283 285 289 291 280 266 265 263 255 248 232 244 250 266 279 269 248 250 264 223 238 274 234 199 205 207 208 211 208 194 194 198 195 195 201 201 199 198 195 195 195 196 193 193 191 185 183 183 185 189 191 192 186 182 181 175 165
149 158 132 132 118 111 117 296 272 313 266 276 280 284 293 294 287 284 282 295 298 296 287 278 281 290 290 295 291 287 283 285 286 276 266 262 259 250 240 232 219 234 255 269 278 222 264 266 224 243 273 239 190 199 201 200 197 180 201 202 197 198 193 197 198 198 195 194 194 194 193 191 191 185 182 180 183 186 189 187 182 178 174 166 159
140 136 132 141 147 165 180 238 253 258 268 256 248 255 259 268 282 281 285 289 292 294 295 291 285 285 286 289 295 295 295 291 296 299 292 280 271 266 254 235 232 227 240 255 269 257 209 248 252 257 246 245 219 197 252 255 202 186 191 200 207 205 193 197 196 196 196 194 192 192 190 188 188 188 186 183 183 185 185 182 181 176 170 164 160
157 155 155 166 179 195 211 209 241 248 243 246 230 236 233 229 241 257 270 279 287 287 291 297 295 291 286 285 284 287 295 305 303 305 307 301 288 282 275 260 241 222 224 244 248 271 230 243 251 278 262 246 234 178 211 247 179 187 217 209 212 205 194 205 200 195 194 192 191 191 190 187 187 188 189 187 184 182 181 179 177 175 169 165 163
151 158 168 181 191 202 219 231 227 237 231 246 245 236 241 257 260 245 253 251 265 282 287 291 295 295 290 284 280 278 285 291 293 295 298 300 302 294 281 273 264 248 236 237 245 260 266 197 237 227 239 251 279 248 232 224 232 214 203 217 199 190 199 201 201 203 196 191 190 190 189 187 188 189 189 188 185 181 177 175 173 172 169 167 168
160 171 179 189 193 199 206 230 239 247 250 244 255 237 245 251 258 247 253 263 275 281 288 292 290 289 292 293 289 285 277 278 285 289 289 297 300 303 299 292 280 271 247 244 250 253 267 247 245 237 236 187 233 227 220 216 227 199 204 205 196 192 199 198 195 203 201 195 190 189 189 188 188 188 188 186 182 178 176 173 171 170 170 171 170
185 166 185 191 202 206 215 232 231 237 235 242 249 246 255 248 248 254 243 242 254 270 276 275 278 280 287 287 292 295 292 284 277 277 283 283 287 291 292 294 290 280 272 252 245 247 254 263 225 237 218 217 215 236 230 227 210 192 199 204 197 198 198 192 196 204 200 198 193 190 190 189 188 188 186 184 181 178 178 176 171 170 172 171 172
181 216 191 205 211 211 221 231 223 232 251 258 274 267 259 255 253 255 258 253 253 254 259 264 268 272 270 280 282 287 293 292 288 281 276 276 278 280 286 289 289 289 281 275 258 248 244 261 229 212 215 219 235 234 231 231 197 200 211 206 191 200 197 194 198 204 199 200 195 193 192 191 189 186 185 185 183 181 180 178 173 171 171 171 171
201 199 229 194 201 199 212 229 239 247 267 293 312 313 308 301 295 299 300 298 289 281 273 269 266 262 263 264 274 283 293 296 297 295 288 282 281 281 277 280 283 288 292 284 279 274 269 259 258 217 212 218 227 227 190 197 203 181 168 194 199 197 197 195 187 196 181 198 203 198 195 193 191 187 185 184 183 181 179 179 176 171 169 170 170
198 197 202 201 193 204 204 217 223 319 330 321 284 276 298 328 337 331 326 321 315 306 299 292 287 281 278 278 283 293 305 305 305 306 307 303 301 294 292 286 283 283 287 300 304 302 296 292 286 272 221 220 225 231 202 199 191 186 197 174 150 194 188 183 189 155 142 174 191 205 204 201 198 190 186 183 181 179 178 177 176 173 169 169 169
182 193 200 177 196 172 204 118 129 136 110 99 65 27 41 36 7 343 328 320 312 311 304 300 299 296 288 284 283 282 281 284 291 299 310 318 316 316 315 314 306 298 292 288 288 295 299 301 299 290 279 239 222 234 222 202 205 204 190 158 216 219 246 188 174 107 155 177 203 202 204 195 190 191 190 187 182 178 177 175 175 173 170 168 169
178 185 164 181 177 115 146 131 134 121 99 60 327 117 114 291 294 295 295 296 292 289 290 287 291 292 290 287 280 275 270 270 274 281 291 295 303 300 298 303 308 308 304 304 301 291 287 291 289 300 300 284 253 247 194 151 154 169 192 196 208 194 203 197 195 186 189 176 172 181 191 187 196 196 188 187 185 180 175 174 174 173 172 169 169
174 176 172 150 129 115 109 127 123 132 148 225 221 226 272 287 278 280 278 273 272 278 277 276 275 277 279 277 279 276 276 280 279 277 273 272 282 289 289 289 296 300 299 301 297 297 290 283 287 290 293 293 272 242 223 192 195 207 206 201 222 208 194 181 164 122 154 184 188 177 188 189 176 183 180 184 191 179 178 172 174 175 172 169 169
173 146 116 133 138 148 136 126 182 184 237 252 269 270 269 274 276 271 267 263 261 261 268 274 273 269 270 271 271 275 282 285 283 277 273 273 268 256 263 274 279 286 286 289 287 287 284 281 277 284 284 280 283 254 246 233 226 218 165 177 216 193 131 130 56 235 173 175 174 197 204 184 182 182 182 191 182 179 178 179 183 176 175 171 169
152 132 139 138 145 144 142 156 224 260 271 272 272 275 280 280 279 276 268 267 259 258 259 261 269 270 269 266 268 272 275 279 280 279 276 270 268 270 267 260 253 250 275 273 271 273 277 274 271 267 266 273 272 264 240 248 232 218 205 198 206 161 173 166 207 206 207 182 193 197 201 186 182 187 193 194 176 181 188 192 177 177 174 171 169
132 134 141 157 146 152 149 166 224 255 263 271 274 279 281 281 279 276 275 273 271 266 263 266 269 271 273 272 269 268 268 270 275 277 276 274 271 268 266 266 265 254 231 235 262 271 263 272 270 260 261 261 272 270 256 237 254 253 233 208 199 185 188 198 201 205 195 179 182 187 198 147 183 193 195 203 187 186 193 181 177 177 174 172 168
133 149 158 116 144 178 171 219 257 270 279 279 281 281 283 282 282 282 283 281 280 279 276 274 273 274 274 274 275 266 266 269 274 274 276 280 277 275 271 267 264 259 260 248 229 234 255 254 260 268 256 269 268 262 249 235 211 229 238 230 206 200 205 206 209 206 153 171 158 188 202 188 178 195 204 189 180 181 182 178 179 178 173 171 167
123 107 109 137 167 205 237 272 287 294 288 288 285 285 285 286 287 287 273 272 271 270 271 269 268 269 267 271 274 274 267 267 268 270 271 272 274 274 272 269 267 266 261 256 254 236 222 233 243 260 261 251 265 285 288 261 224 214 213 238 248 220 209 218 245 51 103 171 184 179 198 172 195 193 209 199 180 180 185 177 175 176 172 170 170
128 138 140 114 257 289 321 322 313 300 288 287 285 282 281 280 280 282 278 274 273 271 268 266 264 264 265 265 265 269 271 268 262 263 268 268 270 269 267 263 262 264 261 260 255 257 248 233 234 247 258 254 265 275 280 281 261 248 217 216 202 179 54 40 49 55 130 196 167 145 212 190 174 200 216 182 166 178 180 172 176 174 174 174 171
100 105 97 102 69 340 292 286 283 283 280 277 279 279 279 280 281 281 276 272 273 274 272 269 266 262 264 265 270 272 271 269 265 259 259 264 267 270 267 266 265 259 257 252 254 256 254 254 250 253 259 261 263 268 271 272 273 269 278 356 106 128 139 154 180 232 220 218 198 186 201 171 180 197 198 130 139 173 169 173 182 177 176 176 173
126 130 145 186 196 204 238 253 271 280 285 281 277 276 275 276 279 273 273 275 275 276 274 273 273 273 272 272 270 274 271 271 269 261 256 255 262 263 265 266 264 261 259 254 246 249 250 250 250 251 255 259 262 264 264 262 257 256 218 197 198 161 168 199 191 158 217 186 213 207 174 142 185 184 158 158 153 168 170 176 173 184 177 175 173
141 171 189 205 231 217 234 266 272 287 283 280 279 279 279 278 277 278 272 270 271 271 277 271 272 271 268 270 274 275 275 274 277 271 261 253 259 260 262 264 265 263 262 259 256 249 245 248 249 250 254 258 256 253 253 254 257 251 221 221 199 172 202 200 203 199 163 178 203 167 172 205 143 166 148 100 112 181 168 163 161 179 182 179 178
161 186 185 216 265 273 268 275 289 284 283 285 286 285 283 281 281 277 273 270 277 276 278 279 271 272 270 266 268 270 271 273 273 272 269 264 262 261 261 261 261 261 261 257 252 252 248 249 252 256 261 259 252 238 233 237 242 241 231 232 195 191 205 203 198 123 143 233 202 175 189 181 155 183 155 131 198 203 155 170 168 171 180 180 177